Regional Weather Roundup
Issued by NWS Goodland, KS

Home | Current Version | Previous Version | Graphics & Text | Print | Product List | Glossary On
Versions: 1 2 3 4 5 6 7 8 9 10 11 12 13 14 15 16 17 18 19 20 21 22 23 24 25 26 27 28 29 30 31 32 33 34 35 36 37 38 39 40 41 42 43 44 45 46 47 48 49 50
000
ASUS43 KGLD 281759
RWRGLD

GOODLAND FORECAST AREA HOURLY WEATHER ROUNDUP
NATIONAL WEATHER SERVICE GOODLAND KS
1200 PM MDT TUE JUL 28 2015

...OFFICIAL OBSERVATIONS...

CITY           SKY/WX    TMP DP  RH WIND       PRES   REMARKS
GOODLAND KS    SUNNY     80  43  26 N20G28    30.07R
HILL CITY KS   SUNNY     83  56  39 N26G33    29.96R
IMPERIAL NEB   MOSUNNY   81  40  23 N18       30.07S
MCCOOK NEB     SUNNY     81  53  37 N16       30.01R
AKRON CO       SUNNY     79  33  19 N17G24    30.14R
BURLINGTON CO  SUNNY     78  39  24 NE24      30.11R
LIMON CO       SUNNY     76  40  27 NE14      30.18S
$$

...UNOFFICIAL OBSERVATIONS...

CITY           SKY/WX    TMP DP  RH WIND       PRES   REMARKS
COLBY KS       SUNNY     81  57  44 N17G26    30.04R
NORTON KS      SUNNY     79  48  34 N22G28    29.96S
SHARON SPRINGS   N/A     80  53  39 NE12G21     N/A
KIT CARSON CO    N/A     79  44  28 MISG        N/A
$$



USA.gov is the U.S. government's official web portal to all federal, state and local government web resources and services.